Probability
0 0 0 0 1 2 3 3 3 3 3 3 3 3 3 3 3 2 1 0 0 0 0 1 2 3 3 3 1 0 0 0 0 0 0 0 0 0 0 0 0 0 0
0 0 0 0 0 1 2 3 3 3 3 3 3 3 3 3 3 2 1 0 0 0 0 0 1 2 3 3 2 1 0 0 0 0 0 0 0 0 0 0 0 0 0
0 0 0 0 0 0 1 2 3 3 3 3 3 3 2 1 1 1 1 0 0 0 0 0 0 1 2 3 3 2 1 0 0 0 0 0 0 0 0 0 0 0 0
0 0 0 0 0 0 0 1 2 3 2 3 2 1 1 0 0 0 0 0 0 0 0 0 0 0 1 2 3 3 1 0 0 0 0 0 0 0 0 0 0 0 0
0 0 0 0 0 0 0 1 1 1 1 1 1 1 0 0 0 0 0 0 0 0 0 0 0 0 0 1 2 3 2 1 0 0 0 0 0 0 0 0 0 0 0
0 0 0 0 0 0 0 0 0 0 0 0 0 0 0 0 0 0 0 0 0 0 0 0 0 0 0 0 1 2 2 1 0 0 0 0 0 0 0 0 0 0 0
0 0 0 0 0 0 0 0 0 0 0 0 0 0 0 0 0 0 0 0 0 0 0 0 0 0 0 0 0 1 2 2 1 0 0 0 0 0 0 0 0 0 0
0 0 0 0 0 0 0 0 0 0 0 0 0 0 0 0 0 0 0 0 0 0 0 0 0 0 0 0 0 0 1 2 1 0 0 0 0 0 0 0 0 0 0
0 0 0 0 0 0 0 0 0 0 0 0 0 0 0 0 0 0 0 0 0 0 0 0 0 0 0 0 0 0 0 1 1 0 0 0 0 0 0 0 0 0 0
0 0 0 0 0 0 0 0 0 0 0 0 0 0 0 0 0 0 0 0 0 0 0 0 0 0 0 0 0 0 0 0 0 0 0 0 0 0 0 0 0 0 0
0 0 0 0 0 0 0 0 0 0 0 0 0 0 0 0 0 0 0 0 0 0 0 0 0 0 0 0 0 0 0 0 0 0 0 0 0 0 0 0 0 0 0
0 0 0 0 0 0 0 0 0 0 0 0 0 0 0 0 0 0 0 0 0 0 0 0 0 0 0 0 0 0 0 0 0 0 0 0 0 0 0 0 0 0 0
0 0 0 0 0 0 0 0 0 0 0 0 0 0 0 0 0 0 0 0 0 0 0 0 0 0 0 0 0 0 0 0 0 0 0 0 0 0 0 0 0 0 0
0 0 0 0 0 0 0 0 0 0 0 0 0 0 0 0 0 0 0 0 0 0 0 0 0 0 0 0 0 0 0 0 0 0 0 0 0 0 0 0 0 0 0
0 0 0 0 0 0 0 0 0 0 0 0 0 0 0 0 0 0 0 0 0 0 0 0 0 0 0 0 0 0 0 0 0 0 0 0 0 0 0 0 0 0 0
0 0 0 0 0 0 0 0 0 0 0 0 0 0 0 0 0 0 0 0 0 0 0 0 0 0 0 0 0 0 0 0 0 0 0 0 0 0 0 0 0 0 0
0 0 0 0 0 0 0 0 0 0 0 0 0 0 0 0 0 0 0 0 0 0 0 0 0 0 0 0 0 0 0 0 0 0 0 0 0 0 0 0 0 0 0
0 0 0 0 0 0 0 0 0 0 0 0 0 0 0 0 0 0 0 0 0 0 0 0 0 0 0 0 0 0 0 0 0 0 0 0 0 0 0 0 0 0 0
0 0 0 0 0 0 0 0 0 0 0 0 0 0 0 0 0 0 0 0 0 0 0 0 0 0 0 0 0 0 0 0 0 0 0 0 0 0 0 0 0 0 0
0 0 0 0 0 0 0 0 0 0 0 0 0 0 0 0 0 0 0 0 0 0 0 0 0 0 0 0 0 0 0 0 0 0 0 0 0 0 0 0 0 0 0
0 0 0 0 0 0 0 0 0 0 0 0 0 0 0 0 0 0 0 0 0 0 0 0 0 0 0 0 0 0 0 0 0 0 0 0 0 0 0 0 0 0 0
0 0 0 0 0 0 0 0 0 0 0 0 0 0 0 0 0 0 0 0 0 0 0 0 0 0 0 0 0 0 0 0 0 0 0 0 0 0 0 0 0 0 0
0 0 0 0 0 0 0 0 0 0 0 0 0 0 0 0 0 0 0 0 0 0 0 0 0 0 0 0 0 0 0 0 0 0 0 0 0 0 0 0 0 0 0
0 0 0 0 0 0 0 0 0 0 0 0 0 0 0 0 0 0 0 0 0 0 0 0 0 0 0 0 0 0 0 0 0 0 0 0 0 0 0 0 0 0 0
0 0 0 0 0 0 0 0 0 0 0 0 0 0 0 0 0 0 0 0 0 0 0 0 0 0 0 0 0 0 0 0 0 0 0 0 0 0 0 0 0 0 0
0 0 0 0 0 0 0 0 0 0 0 0 0 0 0 0 0 0 0 0 0 0 0 0 0 0 0 0 0 0 0 0 0 0 0 0 0 0 0 0 0 0 0
Wind_Speed
4 3 3 3 3 3 4 3 3 3 3 2 2 2 1 1 1 1 1 2 2 2 2 2 2 2 2 2 2 1 2 2 2 2 2 2 2 3 3 3 3 4 4
3 4 4 3 3 4 4 4 3 3 3 2 2 1 2 1 1 1 1 1 2 2 2 2 1 1 2 2 2 2 1 1 2 1 1 1 2 3 3 3 3 4 4
7 6 5 4 3 3 3 4 3 3 3 2 2 2 2 1 1 1 1 1 1 2 2 2 2 1 2 1 1 1 2 1 1 2 1 2 1 2 2 2 3 3 3
6 5 5 5 4 3 2 3 3 3 3 3 3 3 2 2 1 1 0 1 1 1 2 2 1 1 1 1 1 1 0 2 0 1 1 1 1 1 1 2 2 3 2
6 6 6 6 4 3 3 2 3 3 3 3 3 3 2 1 1 1 1 0 1 1 1 1 1 1 0 0 0 1 1 1 1 0 0 1 1 1 1 2 2 3 2
5 5 4 4 3 3 2 3 4 3 3 3 3 3 3 2 2 1 1 0 0 0 1 1 1 1 0 0 0 0 0 0 0 0 0 0 0 0 1 1 2 3 3
5 5 5 5 4 4 3 3 4 3 3 3 3 2 2 3 3 2 2 1 1 0 1 0 1 0 1 0 0 0 0 0 1 1 0 0 0 0 1 1 1 2 2
4 5 6 6 5 5 4 4 4 3 3 3 2 2 2 2 2 2 2 2 2 2 2 1 1 1 1 0 0 0 1 0 1 1 1 1 1 1 1 1 1 1 2
3 4 4 5 5 5 5 5 4 3 3 3 2 2 2 2 2 2 2 2 1 1 1 2 2 2 1 1 1 1 1 1 1 1 1 1 1 1 1 1 1 2 2
2 3 3 4 4 4 4 4 4 3 2 2 2 2 2 2 2 2 2 2 2 1 2 2 2 2 2 1 2 2 1 1 1 1 1 1 1 1 1 1 1 1 2
3 3 3 3 3 3 3 3 3 2 2 2 2 2 2 2 2 2 2 2 2 2 2 2 2 2 2 2 2 2 2 2 2 2 2 2 2 1 1 1 1 1 1
2 2 2 2 2 3 3 3 3 3 3 2 2 2 2 2 2 2 2 2 2 2 2 2 2 2 2 3 3 3 3 3 3 3 3 3 2 2 1 1 2 2 2
1 1 1 2 2 3 3 3 3 3 2 2 2 2 2 2 2 3 2 2 2 2 2 2 3 3 3 3 4 4 4 4 4 4 4 4 3 3 2 3 3 2 2
1 1 2 2 2 3 3 3 3 2 2 2 2 3 3 3 3 3 2 2 3 3 3 3 3 3 3 4 4 4 4 5 5 4 4 4 5 5 4 4 4 3 3
3 3 3 3 2 2 2 2 2 2 2 2 3 3 3 3 3 3 3 3 3 3 3 3 3 4 4 4 5 5 5 5 5 4 5 5 6 7 6 4 4 3 3
4 4 3 3 3 3 3 2 2 2 2 3 3 3 2 2 2 2 2 3 3 3 3 3 4 4 4 8 9 7 5 5 5 5 5 5 6 7 9 8 7 6 5
5 4 4 4 4 3 3 3 3 2 2 2 3 3 2 3 3 3 2 3 3 2 3 4 4 5 7 10 11 10 5 5 5 5 5 5 5 6 4 7 8 8 10
4 4 3 3 2 2 2 1 1 2 2 2 3 3 3 3 2 2 3 3 3 3 3 4 4 5 7 11 11 11 6 4 5 6 6 6 5 6 6 5 5 5 6
3 3 3 2 1 1 1 1 1 1 2 2 3 3 3 3 3 3 3 3 3 3 3 4 4 5 7 11 11 10 4 4 5 6 6 6 6 10 11 6 5 5 5
3 2 2 1 1 1 0 1 1 1 2 3 3 3 3 3 4 4 3 3 3 3 4 5 4 5 6 11 12 10 4 5 5 5 6 10 9 11 12 6 5 6 6
3 2 1 1 1 1 0 0 1 3 3 2 2 2 3 3 3 3 3 3 3 3 3 5 5 5 7 9 11 10 5 5 5 5 4 6 11 12 12 10 6 8 6
2 2 1 2 2 1 0 1 2 3 2 1 2 2 3 3 2 2 3 3 3 3 3 4 5 4 5 7 9 11 10 8 6 5 4 5 11 11 11 8 8 10 7
2 1 1 1 2 1 1 2 3 2 1 1 2 2 3 2 2 2 3 2 2 3 3 3 4 4 4 5 10 11 11 11 6 5 8 9 10 9 7 9 10 7 3
2 1 1 1 2 2 2 2 2 2 1 2 2 2 2 2 2 2 3 3 3 3 4 4 4 4 4 4 4 5 6 8 7 5 7 9 9 7 7 6 5 3 4
2 2 2 2 3 2 2 2 2 1 1 2 2 2 2 2 2 3 3 4 4 5 5 4 4 4 5 6 9 6 5 4 5 4 3 3 3 3 3 3 3 3 3
2 2 2 3 3 2 3 3 2 1 1 2 2 2 2 2 2 2 3 6 7 9 11 10 9 7 10 12 12 12 11 11 9 5 3 3 4 4 4 4 4 3 3
Wind_Direction
188 159 153 141 132 132 135 138 130 123 118 124 127 116 104 81 81 78 82 98 90 88 89 80 70 59 63 49 41 37 46 34 21 42 16 4 16 46 37 30 34 28 24
170 165 156 148 150 158 153 149 147 144 141 142 151 147 144 145 122 48 60 92 96 97 92 97 90 79 73 58 48 47 61 32 17 52 55 14 355 7 12 20 38 29 21
187 179 168 167 160 163 169 167 161 150 149 133 120 107 86 70 60 45 35 37 89 107 109 113 111 98 103 107 82 80 83 100 344 21 98 132 214 322 334 9 27 23 21
183 176 169 169 175 183 174 165 157 146 144 139 135 142 144 153 191 196 194 26 64 88 101 108 112 119 112 117 137 91 74 131 129 343 4 55 145 156 310 329 354 352 357
180 178 176 176 174 168 157 157 146 140 138 140 146 149 145 147 132 113 108 86 43 61 92 105 110 113 115 121 108 69 74 133 149 142 336 6 14 67 189 275 312 330 328
182 176 172 162 158 147 138 146 148 147 147 145 144 151 150 137 130 132 144 176 140 6 33 88 111 122 134 203 208 157 145 160 131 131 131 144 183 227 217 254 289 300 302
175 172 171 172 167 160 159 161 159 159 159 156 157 163 168 168 173 183 181 183 190 232 252 249 173 188 226 230 264 184 188 195 181 202 240 239 247 223 249 247 280 294 299
181 183 183 177 175 175 173 175 174 174 173 170 172 171 175 185 193 197 195 197 212 220 216 207 204 215 215 232 285 279 261 233 215 246 235 244 258 233 228 208 215 294 296
197 193 186 183 182 184 189 187 184 187 186 180 173 179 188 198 213 212 203 210 219 221 203 209 208 210 210 207 199 231 250 241 242 239 242 250 262 254 244 223 200 197 254
201 200 194 190 187 186 189 183 183 191 193 186 191 201 208 212 213 210 218 220 221 216 205 209 212 210 214 216 205 219 227 220 249 251 237 257 263 264 258 234 238 221 215
203 206 195 181 177 169 172 177 184 185 192 197 199 207 221 221 212 216 223 220 219 211 213 219 220 223 225 223 223 238 221 215 232 245 240 251 250 247 259 257 247 242 223
195 189 183 165 165 175 180 184 191 197 203 202 203 221 232 225 223 230 234 225 216 214 219 218 227 235 235 228 225 241 241 226 230 236 234 244 247 242 246 249 254 251 240
259 212 184 187 192 194 194 195 196 201 201 197 206 229 237 235 237 240 242 235 225 221 228 222 225 238 245 240 234 231 238 235 232 233 232 237 233 242 243 239 242 251 261
266 251 241 230 216 208 203 200 205 203 203 207 216 229 233 235 239 241 238 238 234 229 229 235 236 240 247 252 243 236 237 238 239 239 236 234 231 233 235 238 235 238 247
270 261 257 249 240 229 222 215 212 209 206 210 226 235 238 238 239 239 241 245 245 244 240 242 247 248 244 243 239 231 232 236 239 241 240 242 245 243 240 240 227 224 233
272 276 278 262 242 239 239 231 224 218 204 213 235 243 241 240 242 244 249 253 253 250 247 249 250 253 256 260 256 249 232 234 235 240 243 246 252 255 258 260 252 241 236
277 278 269 257 248 241 235 228 223 213 205 222 238 240 235 237 241 245 248 249 250 247 250 252 252 256 258 263 262 259 251 233 233 234 239 250 251 257 254 259 261 261 259
295 295 293 289 275 253 243 236 204 192 209 230 240 239 235 239 243 240 245 248 247 244 246 251 251 257 264 266 266 264 257 237 235 235 235 241 245 245 249 242 246 251 260
290 292 291 285 270 253 233 188 199 199 217 237 247 247 237 239 241 241 246 250 250 253 254 252 251 255 268 271 268 267 252 244 244 245 242 242 241 249 255 248 243 255 264
317 313 315 332 314 290 188 149 213 219 239 247 253 253 243 239 241 242 248 254 251 254 260 265 259 256 264 273 271 268 249 246 248 249 246 250 253 254 254 242 233 245 253
328 337 347 348 310 300 123 188 251 251 255 258 259 258 255 250 248 249 253 250 253 259 261 267 269 264 266 271 272 268 256 247 249 252 246 248 256 259 259 255 239 248 258
339 351 1 338 332 335 150 248 270 275 277 261 259 262 263 261 259 248 256 253 245 257 265 267 274 269 269 274 271 270 265 260 248 248 250 253 261 262 261 260 258 261 263
311 320 316 315 317 305 215 248 275 285 279 264 261 266 272 270 264 251 252 256 242 244 260 260 267 274 271 271 277 275 272 269 263 254 260 266 268 267 262 263 266 263 250
298 298 295 294 295 293 275 256 273 279 262 258 265 267 266 272 271 263 255 249 241 242 251 257 264 271 271 266 267 268 270 269 263 259 262 266 269 271 271 270 268 258 241
294 287 268 270 282 293 290 288 285 269 264 267 268 269 264 264 269 268 254 254 239 238 246 248 252 260 265 266 269 266 254 247 249 251 241 244 252 249 252 257 258 253 251
283 290 287 285 287 289 292 297 294 258 244 267 269 261 260 264 268 279 291 284 276 277 273 269 264 261 266 278 279 278 275 273 264 257 241 241 241 242 243 248 254 252 250